Hourly Weather Juarez

Today, 26 November, Thursday

Time Temperature Precipitation Wind Pressure Humidity
00:00 +20°C° 0 mm 1 mps 727 mmHg 69%
01:00 +20°C° 0 mm 1 mps 727 mmHg 68%
02:00 +20°C° 0 mm 1 mps 727 mmHg 67%
03:00 +21°C° 0 mm 1 mps 727 mmHg 67%
04:00 +21°C° 0 mm 1 mps 727 mmHg 68%
05:00 +20°C° 0 mm 2 mps 727 mmHg 66%
06:00 +21°C° 0 mm 1 mps 727 mmHg 65%
07:00 +22°C° 0 mm 1 mps 727 mmHg 64%
08:00 +21°C° 0 mm 0 mps 727 mmHg 62%
09:00 +25°C° 0 mm 1 mps 727 mmHg 58%
10:00 +26°C° 0 mm 1 mps 727 mmHg 54%
11:00 +28°C° 0 mm 2 mps 726 mmHg 50%
12:00 +29°C° 0 mm 2 mps 726 mmHg 47%
13:00 +30°C° 0 mm 2 mps 725 mmHg 45%
14:00 +31°C° 0 mm 2 mps 724 mmHg 42%
15:00 +29°C° 0 mm 2 mps 724 mmHg 48%
16:00 +28°C° 0 mm 2 mps 724 mmHg 55%
17:00 +26°C° 0 mm 2 mps 724 mmHg 61%
18:00 +25°C° 0 mm 2 mps 724 mmHg 63%
19:00 +25°C° 0 mm 1 mps 725 mmHg 66%
20:00 +24°C° 0 mm 1 mps 725 mmHg 68%
21:00 +24°C° 0 mm 1 mps 725 mmHg 72%
22:00 +23°C° 0 mm 1 mps 725 mmHg 76%
23:00 +23°C° 0 mm 1 mps 725 mmHg 80%

Tomorrow, 27 November, Friday

Time Temperature Precipitation Wind Pressure Humidity
00:00 +23°C° 0 mm 1 mps 725 mmHg 80%
01:00 +22°C° 0 mm 1 mps 725 mmHg 80%
02:00 +22°C° 0 mm 1 mps 725 mmHg 79%
03:00 +22°C° 0 mm 1 mps 725 mmHg 80%
04:00 +22°C° 0 mm 1 mps 725 mmHg 81%
05:00 +21°C° 0 mm 1 mps 725 mmHg 81%
06:00 +21°C° 0 mm 0 mps 726 mmHg 76%
07:00 +22°C° 0 mm 0 mps 726 mmHg 71%
08:00 +24°C° 0 mm 0 mps 726 mmHg 66%
09:00 +26°C° 0 mm 0 mps 726 mmHg 60%
10:00 +29°C° 0 mm 1 mps 726 mmHg 53%
11:00 +31°C° 0 mm 1 mps 726 mmHg 46%
12:00 +32°C° 0 mm 1 mps 725 mmHg 44%
13:00 +32°C° 0 mm 1 mps 724 mmHg 42%
14:00 +34°C° 0 mm 2 mps 724 mmHg 40%
15:00 +31°C° 0 mm 2 mps 724 mmHg 46%
16:00 +30°C° 0 mm 2 mps 724 mmHg 51%
17:00 +28°C° 0 mm 3 mps 724 mmHg 57%
18:00 +27°C° 0 mm 2 mps 724 mmHg 61%
19:00 +26°C° 0 mm 1 mps 725 mmHg 66%
20:00 +25°C° 0 mm 1 mps 726 mmHg 70%
21:00 +24°C° 0 mm 1 mps 726 mmHg 75%
22:00 +24°C° 0 mm 1 mps 726 mmHg 80%
23:00 +23°C° 0 mm 1 mps 726 mmHg 85%

Day after tomorrow, 28 November, Saturday

Time Temperature Precipitation Wind Pressure Humidity
00:00 +23°C° 0 mm 1 mps 726 mmHg 84%
01:00 +23°C° 0 mm 1 mps 726 mmHg 84%
02:00 +23°C° 0 mm 1 mps 725 mmHg 83%
03:00 +23°C° 0 mm 1 mps 726 mmHg 84%
04:00 +23°C° 0 mm 1 mps 726 mmHg 85%
05:00 +22°C° 0 mm 1 mps 726 mmHg 86%
06:00 +22°C° 0.1 mm 1 mps 726 mmHg 84%
07:00 +23°C° 0.1 mm 1 mps 727 mmHg 82%
08:00 +23°C° 0.1 mm 2 mps 727 mmHg 80%
09:00 +23°C° 0.1 mm 2 mps 727 mmHg 78%
10:00 +21°C° 0.1 mm 2 mps 727 mmHg 75%
11:00 +21°C° 0.1 mm 3 mps 727 mmHg 72%
12:00 +21°C° 0 mm 3 mps 727 mmHg 69%
13:00 +21°C° 0 mm 3 mps 726 mmHg 66%
14:00 +22°C° 0 mm 4 mps 726 mmHg 63%
15:00 +21°C° 0 mm 4 mps 726 mmHg 63%
16:00 +20°C° 0 mm 4 mps 727 mmHg 62%
17:00 +19°C° 0 mm 4 mps 727 mmHg 62%
18:00 +19°C° 0 mm 4 mps 728 mmHg 60%
19:00 +19°C° 0 mm 3 mps 728 mmHg 58%
20:00 +18°C° 0 mm 3 mps 729 mmHg 56%
21:00 +18°C° 0 mm 3 mps 729 mmHg 54%
22:00 +18°C° 0 mm 3 mps 729 mmHg 52%
23:00 +18°C° 0 mm 3 mps 729 mmHg 50%

29 November, Sunday

Time Temperature Precipitation Wind Pressure Humidity
00:00 +17°C° 0 mm 3 mps 729 mmHg 51%
01:00 +17°C° 0 mm 3 mps 729 mmHg 51%
02:00 +16°C° 0 mm 2 mps 729 mmHg 51%
03:00 +15°C° 0 mm 2 mps 729 mmHg 54%
04:00 +15°C° 0 mm 1 mps 729 mmHg 56%
05:00 +13°C° 0 mm 0 mps 729 mmHg 59%
06:00 +14°C° 0 mm 0 mps 729 mmHg 56%
07:00 +16°C° 0 mm 1 mps 730 mmHg 52%
08:00 +18°C° 0 mm 1 mps 730 mmHg 49%
09:00 +20°C° 0 mm 1 mps 730 mmHg 46%
10:00 +21°C° 0 mm 1 mps 730 mmHg 43%
11:00 +23°C° 0 mm 1 mps 730 mmHg 40%
12:00 +23°C° 0 mm 1 mps 730 mmHg 39%
13:00 +24°C° 0 mm 1 mps 729 mmHg 37%
14:00 +25°C° 0 mm 1 mps 729 mmHg 36%
15:00 +23°C° 0 mm 1 mps 729 mmHg 39%
16:00 +20°C° 0 mm 2 mps 730 mmHg 42%
17:00 +19°C° 0 mm 2 mps 730 mmHg 45%
18:00 +18°C° 0 mm 2 mps 731 mmHg 47%
19:00 +17°C° 0 mm 2 mps 731 mmHg 50%
20:00 +16°C° 0 mm 1 mps 732 mmHg 52%
21:00 +15°C° 0 mm 1 mps 732 mmHg 53%
22:00 +15°C° 0 mm 1 mps 733 mmHg 54%
23:00 +14°C° 0 mm 1 mps 733 mmHg 56%

30 November, Monday

Time Temperature Precipitation Wind Pressure Humidity
00:00 +14°C° 0 mm 1 mps 733 mmHg 56%
01:00 +13°C° 0 mm 1 mps 733 mmHg 57%
02:00 +13°C° 0 mm 1 mps 733 mmHg 57%
03:00 +12°C° 0 mm 1 mps 733 mmHg 58%
04:00 +12°C° 0 mm 1 mps 733 mmHg 59%
05:00 +12°C° 0 mm 1 mps 734 mmHg 59%
06:00 +13°C° 0 mm 1 mps 734 mmHg 57%
07:00 +14°C° 0 mm 2 mps 735 mmHg 54%
08:00 +15°C° 0 mm 2 mps 735 mmHg 51%
09:00 +16°C° 0 mm 2 mps 735 mmHg 49%
10:00 +17°C° 0 mm 2 mps 735 mmHg 46%
11:00 +18°C° 0 mm 3 mps 735 mmHg 44%
12:00 +18°C° 0 mm 3 mps 734 mmHg 44%
13:00 +18°C° 0 mm 3 mps 733 mmHg 43%
14:00 +18°C° 0 mm 3 mps 732 mmHg 42%
15:00 +17°C° 0 mm 2 mps 732 mmHg 46%
16:00 +15°C° 0 mm 2 mps 732 mmHg 50%
17:00 +14°C° 0 mm 2 mps 732 mmHg 54%
18:00 +13°C° 0 mm 2 mps 732 mmHg 56%
19:00 +12°C° 0 mm 2 mps 732 mmHg 58%
20:00 +10°C° 0 mm 2 mps 732 mmHg 60%
21:00 +10°C° 0 mm 2 mps 732 mmHg 60%
22:00 +10°C° 0 mm 1 mps 732 mmHg 60%
23:00 +10°C° 0 mm 1 mps 732 mmHg 61%

1 December, Tuesday

Time Temperature Precipitation Wind Pressure Humidity
00:00 +10°C° 0 mm 1 mps 731 mmHg 61%
01:00 +9°C° 0 mm 1 mps 730 mmHg 60%
02:00 +9°C° 0 mm 1 mps 730 mmHg 60%
03:00 +9°C° 0 mm 1 mps 729 mmHg 61%
04:00 +8°C° 0 mm 1 mps 729 mmHg 62%
05:00 +8°C° 0 mm 1 mps 729 mmHg 63%
06:00 +9°C° 0 mm 1 mps 729 mmHg 58%
07:00 +10°C° 0 mm 1 mps 729 mmHg 54%
08:00 +12°C° 0 mm 1 mps 729 mmHg 50%
09:00 +13°C° 0 mm 1 mps 728 mmHg 47%
10:00 +15°C° 0 mm 2 mps 727 mmHg 45%
11:00 +17°C° 0 mm 3 mps 727 mmHg 42%
12:00 +18°C° 0 mm 3 mps 726 mmHg 41%
13:00 +19°C° 0 mm 3 mps 725 mmHg 39%
14:00 +21°C° 0 mm 3 mps 724 mmHg 38%
15:00 +19°C° 0 mm 3 mps 724 mmHg 43%
16:00 +18°C° 0 mm 3 mps 724 mmHg 48%
17:00 +16°C° 0 mm 3 mps 723 mmHg 53%
18:00 +15°C° 0 mm 2 mps 724 mmHg 57%
19:00 +14°C° 0 mm 2 mps 724 mmHg 61%
20:00 +14°C° 0 mm 1 mps 724 mmHg 65%
21:00 +13°C° 0 mm 1 mps 724 mmHg 68%
22:00 +13°C° 0 mm 1 mps 724 mmHg 70%
23:00 +13°C° 0 mm 1 mps 724 mmHg 73%
Show more